Voltar ao catálogo

TATIANA 2

AtivoCiênciaSSO
NORAD 35868·PAYLOAD·🇷🇺 Russia

Lançado Sep 17, 2009 de Baikonur Cosmodrome

Loading…

Próximas Passagens (próximas 24 horas)

TLE

AtualizadoSource: Space-Track

Época: Sep 14, 2026, 07:08 UTC

1 35868U 09049D   26257.29769127  .00000101  00000-0  63059-4 0  9996
2 35868  98.7290 218.8288 0004571  28.3241 331.8185 14.24254576882378

Acompanhe TATIANA 2 em tempo real com AllMySat

Download on the App Store